[[{"header":{"parameterUnit":"m.s-1","parameterCategory":1,"la1":30.2991,"la2":30.254,"lo1":-89.0895,"lo2":-89.0444,"dy":0.0017,"dx":0.0017,"nx":28,"ny":28,"refTime":"2025-06-19T03:00:00:Z","depth":0,"parameterNumber":2,"parameterNumberName":"U-component_of_WINDS"},"data":[0,0,0,0,0,0,0,0,0,0,0,0,0,0,0,0,0,0,0,0,0,0,0,0,0,0,0,0,0,0,0,0,0,0,0,0,0,0,0,0,0,0,0,0,0,0,0,0,0,0,0,0,0,0,0,0,0,0,2.794,2.7941,0,2.8069,2.807,2.8072,2.8067,2.8066,2.8064,2.8062,2.8198,2.8203,2.8209,0,0,0,0,0,0,0,0,0,0,0,0,0,2.7693,2.7698,2.794,2.7942,2.7943,2.8069,2.807,2.8072,2.8068,2.8066,2.8063,2.8061,2.8197,2.8203,2.8209,0,0,0,0,0,0,0,0,0,0,0,0,0,2.7809,2.7699,2.794,2.7956,2.7959,2.8068,2.807,2.8073,2.8068,2.8065,2.8063,2.806,2.8194,2.8202,2.821,2.8313,0,0,2.8234,2.8238,0,0,0,0,0,0,0,0,2.7802,2.7818,2.7952,2.7955,2.7958,2.8049,2.8033,2.8153,2.8069,2.8027,2.8062,2.8059,2.8151,2.8162,2.8193,2.8319,2.8325,2.8235,2.824,2.8243,2.8245,0,0,0,0,0,0,0,2.7794,2.7812,2.7991,2.7954,2.7958,2.7958,2.7971,2.8056,2.8103,2.803,2.803,2.8045,2.8152,2.8185,2.8196,2.8327,2.8235,2.8242,2.8247,2.825,2.8543,2.8546,0,0,0,0,0,0,2.7782,2.7806,2.7987,2.7995,2.7872,2.7964,2.7979,2.8023,2.8102,2.8111,2.8047,2.8045,2.8173,2.8187,2.8201,2.8324,2.8243,2.8251,2.8255,2.854,2.8544,2.8547,0,0,0,0,0,0,2.7777,2.7799,2.7982,2.79,2.7924,2.7971,2.802,2.8027,2.8059,2.8115,2.8123,2.8072,2.8171,2.8189,2.8284,2.8329,2.8254,2.8261,2.8536,2.8541,2.8545,2.8574,0,0,0,0,0,0,2.777,2.7797,2.7836,2.7901,2.7928,2.8062,2.8023,2.8031,2.8072,2.807,2.814,2.8149,2.817,2.8272,2.8292,2.8339,2.8268,2.8532,2.8538,2.8544,2.8569,2.8579,2.8587,0,0,0,0,0,2.7761,2.784,2.7838,2.786,2.7978,2.8065,2.808,2.8102,2.8076,2.8116,2.8151,2.8147,2.8321,2.8282,2.8304,2.8354,2.853,2.8537,2.8543,2.8565,2.8577,2.8587,0,0,0,0,0,0,2.778,2.7849,2.7847,2.7949,2.8001,2.8064,2.8115,2.8115,2.8176,2.8171,2.8197,2.8213,2.8307,2.8341,2.8296,2.8457,2.8422,2.8434,2.8431,2.8443,2.8452,2.8441,2.8274,0,0,0,0,0,2.7796,2.786,2.7917,2.8002,2.8028,2.8067,2.8106,2.8118,2.8173,2.8196,2.8238,2.8293,2.836,2.8404,2.8469,2.8574,2.8589,2.862,2.8629,2.8636,2.8645,2.8701,2.8715,2.8569,2.8569,2.8569,0,0,2.783,2.7875,2.7915,2.8007,2.8048,2.8115,2.8086,2.8158,2.8207,2.8207,2.8298,2.8331,2.8394,2.8494,2.8541,2.8525,2.8689,2.8644,2.865,2.8655,2.871,2.8723,2.8736,2.8574,2.8573,2.8572,0,0,2.7924,2.7966,2.804,2.8082,2.8144,2.817,2.8187,2.825,2.8272,2.8363,2.8364,2.8424,2.854,2.8584,2.8621,2.8732,2.8729,2.8752,2.8799,2.8854,2.8865,2.8875,2.8913,2.8926,2.8762,2.8762,2.8762,0,2.7959,2.8057,2.8078,2.815,2.819,2.8192,2.8267,2.8307,2.8388,2.8416,2.8397,2.8541,2.8584,2.8693,2.8719,2.8751,2.8771,2.8744,2.8862,2.8872,2.8882,2.8918,2.8932,2.8764,2.8764,2.8764,2.8763,0,2.8095,2.8164,2.8217,2.8293,2.8339,2.8412,2.8445,2.8489,2.8498,2.8525,2.8618,2.8669,2.8743,2.877,2.878,2.8881,2.8869,2.8856,2.8821,2.8898,2.8932,2.8946,2.8767,2.8766,2.8766,2.8765,0,0,2.8205,2.8291,2.831,2.8343,2.8412,2.8466,2.854,2.861,2.8647,2.8704,2.8765,2.8862,2.8849,2.8892,2.8907,2.8955,2.9037,2.8936,2.8938,2.8951,2.9149,2.9157,2.9172,2.9036,2.9039,2.9041,2.9143,0,2.8305,2.8433,2.8454,2.8566,2.8629,2.8632,2.8695,2.8745,2.8772,2.883,2.8862,2.8929,2.8908,2.8934,2.8982,2.9016,2.9076,2.901,2.9093,2.9096,2.9075,2.9191,2.92,2.9293,2.9156,2.9159,2.916,0,2.8439,2.8496,2.8615,2.8673,2.8701,2.8757,2.8823,2.8879,2.8935,2.8951,2.8998,2.9007,2.9083,2.9046,2.9151,2.9105,2.914,2.9163,2.9167,2.9174,2.9131,2.9199,2.9324,2.9337,2.9182,2.918,2.9179,0,2.8504,2.8612,2.8696,2.8725,2.8796,2.8836,2.8867,2.8921,2.8962,2.902,2.9046,2.9114,2.915,2.9202,2.9228,2.9199,2.9331,2.9297,2.9346,2.9345,2.9372,2.937,2.9502,2.9399,2.9398,2.9398,2.9398,0,2.8613,2.8685,2.8725,2.8777,2.8857,2.8881,2.896,2.8991,2.9038,2.9096,2.9104,2.9158,2.9191,2.925,2.9271,2.9354,2.9371,2.9386,2.9391,2.9384,2.9382,2.9407,2.94,2.9402,2.9401,2.94,2.94,0,2.8699,2.8729,2.882,2.888,2.8897,2.8953,2.9004,2.9054,2.9082,2.9154,2.9173,2.9216,2.9286,2.9318,2.9405,2.9419,2.9512,2.9514,2.9492,2.9494,2.954,2.9535,2.9692,2.9713,2.9597,2.9598,2.9599,0,2.8765,2.8819,2.8884,2.8923,2.8955,2.9017,2.9058,2.9084,2.9127,2.9194,2.9236,2.9306,2.9362,2.9474,2.9513,2.958,2.9581,2.9632,2.9591,2.9582,2.9579,2.9575,2.958,2.9638,2.964,2.9641,2.9641,0,2.8878,2.889,2.8948,2.9012,2.906,2.9112,2.9162,2.9194,2.9228,2.9275,2.9346,2.939,2.9477,2.9546,2.9614,2.9648,2.965,2.9654,2.9668,2.9661,2.9646,2.9653,2.951,2.965,2.9649,2.9648,2.9648,2.9647,2.8954,2.9002,2.9055,2.9119,2.916,2.9207,2.9256,2.9289,2.9348,2.9419,2.9432,2.9506,2.9561,2.9652,2.9688,2.9747,2.9735,2.9757,2.9762,2.9767,2.9768,2.9638,2.976,2.976,2.976,2.976,2.976,0,2.9066,2.91,2.9159,2.9228,2.9279,2.9276,2.9332,2.9374,2.9439,2.9489,2.9544,2.9624,2.9691,2.9735,2.9802,2.9841,2.9844,2.9858,2.9854,2.9861,2.9776,2.9755,2.9854,2.9854,2.9854,2.9854,2.9854,2.9854,2.913,2.921,2.9228,2.9329,2.9363,2.9434,2.9466,2.9509,2.9549,2.9638,2.9692,2.972,2.9768,2.9838,2.9899,2.991,2.9934,2.9948,2.9959,2.9878,2.9868,2.9858,2.9839,2.9953,2.9954,3.0039,3.0039,3.004]},{"header":{"parameterUnit":"m.s-1","parameterCategory":1,"la1":30.2991,"la2":30.254,"lo1":-89.0895,"lo2":-89.0444,"dy":0.0017,"dx":0.0017,"nx":28,"ny":28,"refTime":"2025-06-19T03:00:00:Z","depth":0,"parameterNumber":3,"parameterNumberName":"V-component_of_WINDS"},"data":[0,0,0,0,0,0,0,0,0,0,0,0,0,0,0,0,0,0,0,0,0,0,0,0,0,0,0,0,0,0,0,0,0,0,0,0,0,0,0,0,0,0,0,0,0,0,0,0,0,0,0,0,0,0,0,0,0,0,4.2699,4.2699,0,4.268,4.2679,4.2679,4.267,4.267,4.267,4.267,4.2647,4.2646,4.2645,0,0,0,0,0,0,0,0,0,0,0,0,0,4.2726,4.2725,4.2699,4.2699,4.2699,4.268,4.2679,4.2679,4.267,4.267,4.267,4.267,4.2647,4.2646,4.2645,0,0,0,0,0,0,0,0,0,0,0,0,0,4.2711,4.2725,4.2699,4.2692,4.2691,4.268,4.2679,4.2679,4.267,4.267,4.267,4.267,4.2647,4.2646,4.2645,4.2639,0,0,4.2642,4.2642,0,0,0,0,0,0,0,0,4.2712,4.271,4.2693,4.2692,4.2692,4.2677,4.268,4.2665,4.267,4.2678,4.267,4.267,4.2657,4.2655,4.2651,4.2638,4.2637,4.2642,4.2642,4.2641,4.2641,0,0,0,0,0,0,0,4.2713,4.2711,4.2691,4.2693,4.2692,4.2688,4.2686,4.2677,4.2667,4.2677,4.2676,4.2674,4.2656,4.2652,4.265,4.2636,4.2642,4.2641,4.2641,4.264,4.2615,4.2614,0,0,0,0,0,0,4.2715,4.2712,4.2692,4.2691,4.2702,4.2688,4.2686,4.2682,4.2667,4.2665,4.2674,4.2674,4.2653,4.2651,4.2649,4.264,4.2641,4.264,4.264,4.2615,4.2614,4.2614,0,0,0,0,0,0,4.2716,4.2714,4.2693,4.2701,4.2698,4.2688,4.2683,4.2681,4.2677,4.2665,4.2663,4.2672,4.2653,4.2651,4.2641,4.2639,4.264,4.2639,4.2615,4.2615,4.2614,4.2621,0,0,0,0,0,0,4.2717,4.2714,4.2713,4.2701,4.2698,4.2686,4.2683,4.2681,4.2676,4.2675,4.2663,4.266,4.2653,4.2643,4.264,4.2638,4.2638,4.2615,4.2615,4.2614,4.2621,4.2621,4.2621,0,0,0,0,0,4.2718,4.2715,4.2713,4.271,4.2696,4.2686,4.2684,4.2677,4.2676,4.2673,4.2665,4.2661,4.264,4.2642,4.2639,4.2636,4.2615,4.2615,4.2614,4.2621,4.2621,4.2621,0,0,0,0,0,0,4.2726,4.2713,4.2711,4.2704,4.2696,4.2685,4.2682,4.2677,4.2669,4.2669,4.2659,4.2656,4.2647,4.264,4.2643,4.2628,4.2627,4.2626,4.2633,4.2633,4.2633,4.2634,4.2637,0,0,0,0,0,4.2727,4.2721,4.271,4.2706,4.2702,4.2692,4.2688,4.2683,4.2674,4.267,4.2662,4.2652,4.2643,4.2638,4.2629,4.262,4.2616,4.2616,4.2616,4.2617,4.2616,4.2609,4.2608,4.2613,4.2613,4.2613,0,0,4.2729,4.2722,4.2719,4.2707,4.2701,4.2694,4.269,4.2683,4.2677,4.2669,4.266,4.2653,4.2641,4.2632,4.2627,4.2626,4.2613,4.2616,4.2616,4.2616,4.2608,4.2608,4.2607,4.2613,4.2613,4.2613,0,0,4.2729,4.2724,4.2719,4.2712,4.2702,4.2696,4.2694,4.2683,4.2678,4.2669,4.2662,4.2654,4.2639,4.2631,4.2625,4.262,4.2615,4.2617,4.2618,4.2611,4.2611,4.261,4.2607,4.2606,4.2617,4.2617,4.2617,0,4.2733,4.2724,4.2716,4.271,4.2704,4.2697,4.2691,4.2684,4.2671,4.2667,4.2666,4.2647,4.2639,4.2626,4.2625,4.262,4.2617,4.2619,4.2612,4.2611,4.261,4.2607,4.2606,4.2617,4.2617,4.2617,4.2617,0,4.2728,4.2721,4.2718,4.2707,4.27,4.2694,4.2685,4.2679,4.2674,4.2667,4.2656,4.2646,4.2634,4.2631,4.2626,4.2617,4.2616,4.2614,4.2612,4.261,4.2607,4.2606,4.2617,4.2617,4.2617,4.2617,0,0,4.2733,4.2717,4.2716,4.271,4.2698,4.2692,4.2684,4.2674,4.2668,4.2659,4.2651,4.2638,4.2635,4.2628,4.2622,4.2616,4.2611,4.2614,4.2613,4.2613,4.2598,4.26,4.2599,4.2608,4.2607,4.2607,4.2599,0,4.2731,4.2719,4.2711,4.2701,4.2694,4.2686,4.2679,4.267,4.2663,4.2654,4.2645,4.2636,4.2634,4.2629,4.2623,4.2613,4.2608,4.2614,4.2598,4.2598,4.2601,4.2598,4.26,4.2593,4.2598,4.2598,4.2597,0,4.2728,4.2719,4.2708,4.2696,4.2692,4.2686,4.2675,4.2668,4.2656,4.2651,4.2643,4.2636,4.2626,4.2625,4.2609,4.2613,4.2606,4.26,4.26,4.2598,4.2597,4.2594,4.259,4.2589,4.2596,4.2596,4.2596,0,4.2731,4.2717,4.2709,4.2704,4.2689,4.2685,4.2678,4.2667,4.266,4.265,4.2645,4.2633,4.2626,4.2616,4.2606,4.2607,4.259,4.2589,4.2584,4.2585,4.2581,4.2582,4.2575,4.2578,4.2578,4.2578,4.2578,0,4.273,4.2723,4.271,4.2705,4.2696,4.2687,4.2679,4.2671,4.2661,4.2652,4.2645,4.2637,4.2624,4.2613,4.2605,4.2592,4.2589,4.2584,4.2581,4.2584,4.2585,4.2579,4.2579,4.2578,4.2578,4.2578,4.2578,0,4.2733,4.2724,4.2714,4.2701,4.2697,4.2691,4.2679,4.2672,4.2664,4.2654,4.2651,4.2637,4.2625,4.2613,4.2596,4.259,4.2577,4.2575,4.2581,4.258,4.2575,4.2575,4.2565,4.2562,4.2568,4.2568,4.2567,0,4.2732,4.2727,4.2713,4.2707,4.2701,4.2692,4.2685,4.2675,4.2668,4.2653,4.2648,4.2635,4.2624,4.2604,4.2592,4.2578,4.2574,4.2571,4.2572,4.2574,4.2573,4.2573,4.2571,4.2571,4.2571,4.2571,4.2571,0,4.2731,4.2727,4.2718,4.2707,4.2699,4.269,4.268,4.2676,4.2663,4.2655,4.2643,4.2634,4.2617,4.2603,4.2588,4.2579,4.2572,4.2571,4.2569,4.2571,4.2575,4.2572,4.2581,4.2571,4.2571,4.2571,4.2571,4.2571,4.2732,4.2726,4.2715,4.2705,4.2697,4.2687,4.268,4.2671,4.2661,4.2647,4.2641,4.2627,4.2614,4.2593,4.2583,4.2571,4.257,4.2568,4.2567,4.2566,4.2566,4.2577,4.2569,4.2569,4.2569,4.2569,4.2569,0,4.273,4.2722,4.2713,4.27,4.2691,4.2687,4.2675,4.2668,4.2657,4.2645,4.2634,4.2619,4.2605,4.2591,4.2576,4.2569,4.2565,4.2565,4.2565,4.2563,4.2569,4.2571,4.2568,4.2568,4.2568,4.2568,4.2568,4.2568,4.2728,4.2718,4.2712,4.2696,4.2688,4.2676,4.267,4.266,4.2651,4.2634,4.2623,4.2614,4.2601,4.2585,4.2571,4.2567,4.2561,4.2562,4.2557,4.2562,4.2563,4.2563,4.2565,4.2561,4.2561,4.2552,4.2552,4.2551]}]]